{"data":{"norad_id":52108,"intl_designator":"2022-029W","name":"STARLINK-3698","alt_names":[],"object_type":"PAYLOAD","status":"ACTIVE","operator":null,"country":"US","launch_date":"2022-03-19","launch_site_code":"AFETR","launch_vehicle":null,"mission":null,"orbit_class":"UNKNOWN","rcs_meters":null,"size_class":null,"mass_kg":null,"dimensions":null,"purposes":["comms"],"wikipedia_slug":null,"has_3d_model":false,"image_url":null,"decayed_at":null,"tle_current":{"epoch":"2026-05-25T03:23:02.977152Z","epoch_age_seconds":70176,"freshness":"FRESH","line1":"1 52108U 22029W   26145.14100668  .00000036  00000+0  20385-4 0  9995","line2":"2 52108  53.2128  95.9155 0001373  71.1482 288.9659 15.08837650232322","mean_motion":15.0883765,"eccentricity":0.0001373,"inclination_deg":53.2128,"raan_deg":95.9155,"arg_perigee_deg":71.1482,"mean_anomaly_deg":288.9659,"bstar":2.0385e-5,"rev_number":23232,"period_min":95.437703320831,"perigee_km":538.80074601966,"apogee_km":540.70039794693,"semimajor_km":6917.8875719833,"source":"CELESTRAK","updated_at":"2026-05-25T13:38:17.072698Z"}}}